Tracking 28126 objects as of 2-Oct-2023
HD Live streaming from Space Station
objects crossing your sky now

STARLINK-6355

Track STARLINK-6355 now!
10-day predictions
STARLINK-6355 is classified as:


NORAD ID: 57356
Int'l Code: 2023-099AE
Perigee: 559.4 km
Apogee: 561.0 km
Inclination: 43.0 °
Period: 95.7 minutes
Semi major axis: 6931 km
RCS: Unknown
Launch date: July 16, 2023
Source: United States (US)
Launch site: AIR FORCE EASTERN TEST RANGE (AFETR)
Your satellite tracking list
Your tracking list is empty




NASA's NSSDC Master Catalog

Two Line Element Set (TLE):
1 57356U 23099AE  23274.70196192  .00000967  00000-0  82483-4 0  9993
2 57356  43.0011  32.3702 0001175 287.3302  72.7412 15.04498927 13021
Source of the keplerian elements: AFSPC